Wind_Speed
8 8 8 8 8 7 7 7 7 7 7 6 6 6 6 6 6 7 6 5 6 6 5 4 5 6 6 7 7 7 5 3 4 6 4 1 1 2 3 4 5 4 3 2 5 8 9 11 11 10 8 8 6 5 7 6 4 5 6 6 6 6 4 3 5 2 2 9 11 10 8 8 11 7 5 6 6 8 8 6 5 5 4 6 7 9 14 15
8 8 7 8 8 7 7 7 7 7 6 6 6 6 6 6 6 6 5 6 7 6 5 5 5 5 6 7 7 6 4 5 6 4 3 4 4 4 5 5 3 2 2 3 7 10 11 11 12 11 8 7 6 6 8 5 5 7 5 6 6 3 3 3 1 1 1 7 11 9 6 5 9 8 6 7 7 8 7 7 7 7 7 7 9 11 13 13
8 8 8 8 8 7 7 7 7 6 6 6 6 6 6 6 5 6 6 6 6 5 4 4 5 5 6 7 6 5 5 6 6 5 6 4 3 3 2 1 0 1 2 3 5 8 7 8 11 11 8 7 5 7 8 7 6 5 4 6 4 3 4 4 1 2 2 5 10 9 5 5 6 6 6 6 7 8 6 6 6 7 8 9 11 12 13 13
9 9 8 8 7 7 7 7 7 6 6 6 6 6 5 5 5 6 7 5 4 3 3 4 4 5 6 6 5 3 5 7 5 7 5 3 1 1 1 2 3 1 2 3 4 5 4 6 10 10 8 7 6 7 8 7 5 4 5 4 2 4 3 5 3 3 3 2 7 9 7 6 6 4 5 5 6 7 6 4 3 3 8 11 11 12 13 12
9 9 8 7 7 7 7 7 6 6 6 6 6 5 4 5 5 6 6 4 3 3 3 4 4 5 6 4 3 3 7 5 6 6 4 3 1 2 3 4 4 3 4 6 5 5 6 7 9 9 8 6 7 8 7 7 4 4 5 3 4 2 2 7 5 4 3 1 5 8 7 7 6 4 5 6 6 1 2 4 2 2 8 12 12 12 13 12
9 9 9 7 7 8 7 7 7 6 6 6 6 5 5 5 5 5 5 4 3 3 3 3 4 6 5 3 2 5 7 1 5 5 5 3 1 3 4 3 2 4 6 7 6 7 8 9 10 9 7 6 9 8 6 7 4 5 5 1 2 0 2 7 6 4 2 3 6 5 4 6 6 6 4 5 4 4 5 3 3 4 8 12 13 12 12 11
9 9 9 8 8 7 7 7 7 6 6 6 5 5 5 5 4 4 4 4 3 3 3 3 4 6 4 2 3 6 4 3 5 5 5 2 1 4 4 4 4 6 7 7 8 8 8 10 10 8 6 6 8 7 6 7 6 6 3 6 3 2 4 6 6 3 1 2 3 2 3 5 6 4 4 5 1 4 3 2 4 6 9 11 12 12 11 11
10 9 8 8 7 7 7 7 6 6 6 5 4 4 4 4 4 3 3 3 2 3 3 3 4 5 3 2 5 5 3 6 5 5 5 2 2 4 5 6 5 6 6 5 5 6 7 9 7 7 6 4 6 6 6 8 8 7 3 7 5 4 6 6 5 4 2 2 2 2 4 4 2 0 3 5 3 4 3 4 6 8 10 10 10 11 10 10
10 9 8 8 8 7 7 6 6 6 5 4 4 3 4 4 3 3 3 2 2 2 3 3 4 4 3 3 7 4 5 5 5 5 4 3 2 4 4 3 3 4 4 1 3 5 5 7 5 6 4 3 6 6 7 8 6 5 4 8 7 6 7 4 4 4 2 2 1 4 4 3 2 1 5 5 4 4 4 6 8 9 10 9 10 10 9 9
10 9 9 8 8 7 6 6 6 6 5 4 3 3 3 3 3 3 2 2 2 2 2 3 4 4 3 6 8 2 6 5 5 5 4 3 2 2 2 1 1 3 3 2 1 2 2 3 3 3 3 4 5 4 6 6 1 4 7 8 7 6 6 3 4 4 2 3 1 5 4 4 3 4 5 6 5 4 6 8 8 9 10 9 9 9 9 9
11 9 9 8 7 7 6 5 4 5 4 4 3 2 3 3 3 3 2 1 1 2 3 4 4 4 6 8 5 2 6 5 5 4 3 4 3 2 1 1 1 2 1 2 2 3 3 0 3 3 2 5 6 5 4 1 1 6 8 8 7 6 6 4 4 4 3 3 1 4 3 4 4 6 3 8 5 6 7 9 9 9 9 9 10 9 8 8
11 10 8 7 6 6 5 4 4 4 4 4 3 2 2 3 3 2 1 1 1 2 2 4 5 5 5 7 2 5 6 4 4 3 3 4 4 3 1 1 0 1 1 0 3 4 4 1 4 3 2 5 7 6 4 2 2 7 8 8 7 6 6 6 5 3 4 3 2 3 4 7 9 7 5 8 5 6 7 8 9 8 8 9 9 8 7 8
11 10 8 6 5 5 5 5 4 4 4 4 3 3 3 3 3 3 2 2 1 1 3 4 4 4 5 2 5 5 4 2 3 4 4 5 4 3 1 1 1 1 2 2 3 3 3 1 4 2 2 4 4 4 5 5 4 7 6 5 5 7 7 7 4 3 5 2 2 5 6 7 10 9 6 5 4 6 7 8 8 8 7 8 8 8 8 9
11 9 7 6 5 5 5 5 5 5 5 5 4 4 4 4 4 3 2 3 2 2 3 4 3 3 5 2 5 3 2 1 3 4 4 6 6 5 2 1 2 1 2 3 3 3 1 1 4 3 2 2 4 6 6 6 4 6 5 4 5 6 5 8 4 5 7 3 4 7 7 4 9 10 6 4 5 7 8 8 8 8 7 7 8 8 9 9
10 8 6 5 5 5 5 6 6 6 6 6 5 5 5 5 4 4 3 2 2 2 2 2 2 3 4 4 4 1 1 2 4 3 4 5 6 7 4 3 3 1 1 2 2 2 2 2 4 5 3 2 6 8 6 5 5 5 4 5 6 6 4 8 4 6 6 4 7 9 6 3 8 10 6 4 7 8 8 8 8 8 8 8 8 9 9 9
9 7 6 5 6 6 7 7 8 8 7 6 4 4 5 5 4 4 3 2 2 1 0 1 1 4 4 4 4 3 2 2 3 3 5 5 4 5 4 4 3 2 2 2 3 3 3 2 1 1 3 4 7 7 5 5 5 5 6 5 4 6 4 6 6 5 4 4 9 10 7 2 6 9 7 5 9 10 8 8 8 8 8 8 8 8 8 9
9 7 5 5 6 6 7 8 9 9 7 4 3 1 3 5 5 5 3 2 2 2 1 3 2 4 2 4 3 3 3 2 3 3 4 4 2 3 4 5 4 3 5 5 4 4 3 2 2 2 3 4 4 4 5 6 5 6 6 4 3 5 4 3 6 6 5 6 9 11 9 5 4 9 8 7 9 10 8 7 8 8 7 8 8 8 9 10
9 7 6 6 6 7 8 9 10 10 6 6 7 6 5 5 6 4 3 3 3 3 3 2 3 3 2 4 2 3 3 1 2 3 4 5 3 2 3 3 3 4 6 7 5 4 4 3 3 3 4 4 4 6 6 4 3 5 5 4 4 5 6 4 3 6 5 8 9 10 11 9 5 8 9 9 8 8 8 7 7 7 8 8 9 9 10 10
9 7 6 6 7 8 9 10 11 11 7 7 8 8 8 7 5 4 4 5 3 1 1 1 2 2 3 5 3 3 2 1 4 5 5 5 4 4 3 2 3 5 6 5 4 3 3 3 4 4 5 5 4 5 4 2 2 2 3 3 3 4 6 3 4 4 2 7 10 10 11 11 10 10 11 10 8 8 9 8 7 7 8 9 10 10 10 11
9 7 6 5 6 9 9 9 11 12 8 5 4 3 4 2 2 3 4 4 1 4 3 1 1 2 3 5 3 2 1 4 4 5 6 5 5 6 5 4 4 5 4 2 4 2 2 4 5 3 2 3 2 0 1 2 1 1 2 4 4 4 5 2 5 4 1 5 9 10 10 12 11 9 10 10 9 10 11 11 9 9 10 11 12 13 12 13
10 7 5 5 6 8 8 8 9 12 11 7 1 2 1 4 3 2 2 2 2 4 4 2 3 4 1 0 1 2 1 4 4 5 7 5 5 6 5 5 7 5 2 1 2 2 3 5 3 2 4 4 4 4 4 4 3 3 4 4 5 6 4 2 3 4 3 5 7 7 9 12 12 11 10 10 10 12 13 12 11 12 12 12 13 14 13 11
10 7 5 4 5 7 6 7 7 9 11 9 4 3 5 5 3 2 4 2 3 2 2 1 3 4 2 4 3 3 4 3 6 7 6 6 7 6 4 6 8 4 5 3 3 4 6 5 4 5 4 6 6 5 6 5 4 4 4 4 4 3 2 3 4 4 3 4 5 6 8 11 12 11 12 12 12 12 12 11 10 11 12 11 12 12 11 9
9 6 5 4 4 5 5 5 6 6 8 7 6 6 4 3 3 4 4 3 1 3 2 1 1 1 1 2 2 5 6 2 4 7 7 7 6 4 4 6 6 4 6 7 6 4 4 2 6 6 6 8 7 6 6 5 5 5 4 5 3 2 2 3 5 5 3 4 6 5 7 10 11 12 13 14 13 11 9 8 8 9 11 12 10 8 8 8
10 6 4 4 3 4 3 3 3 3 3 4 7 6 4 5 2 6 4 3 1 3 3 3 2 2 3 2 2 6 4 1 1 6 8 8 4 3 4 3 5 6 6 6 6 6 1 6 6 6 7 8 8 8 8 5 5 5 4 6 4 2 4 3 4 4 4 4 5 7 9 8 8 9 9 9 8 9 9 9 10 11 11 11 9 9 8 7
11 7 4 3 3 4 3 0 2 2 1 1 5 5 7 10 2 7 5 3 3 3 3 2 0 3 4 1 2 4 2 2 1 3 6 6 3 3 2 1 4 6 6 6 6 7 2 5 4 8 8 8 8 7 8 7 5 5 6 7 5 3 4 2 3 4 5 6 5 5 7 3 5 6 6 5 6 8 9 11 12 12 12 10 9 10 9 7
11 8 5 4 3 4 4 1 3 2 3 2 5 6 11 10 3 7 4 3 4 3 2 2 1 3 3 0 2 3 4 3 2 2 4 3 1 2 2 3 3 2 5 5 4 3 3 4 4 6 7 9 8 8 7 7 7 4 4 5 5 5 5 4 5 6 4 2 4 3 6 2 3 6 7 6 6 8 9 10 12 11 10 10 9 9 8 7
12 8 5 4 3 3 3 1 2 3 1 3 6 10 12 6 6 6 4 3 4 3 1 2 1 3 3 2 1 4 2 4 4 4 3 3 2 3 4 4 3 2 3 3 3 1 5 7 5 5 7 8 8 7 7 8 8 2 5 4 6 6 6 6 6 6 4 3 3 7 6 6 5 3 5 6 7 8 9 10 10 10 9 10 9 8 8 7
12 7 4 3 2 3 2 1 2 2 3 4 7 12 10 1 7 4 5 1 4 1 1 3 2 1 3 2 4 5 1 2 2 4 4 3 4 4 6 5 3 3 5 4 4 2 5 7 7 7 7 7 7 2 6 10 7 1 5 3 5 5 5 5 6 5 2 4 5 7 6 6 6 3 6 7 9 9 9 10 10 10 10 9 9 9 8 7
12 7 3 2 2 2 1 1 2 2 2 4 10 12 4 5 5 4 4 1 2 0 1 2 1 1 5 3 5 4 2 3 1 3 5 5 3 3 3 2 2 3 5 6 5 1 3 3 4 6 6 6 3 3 3 8 4 4 6 4 4 4 5 5 6 5 2 5 8 5 7 6 5 3 6 7 8 9 8 8 8 9 9 8 9 9 9 8
10 5 2 2 2 1 1 1 1 2 2 6 11 9 1 5 3 4 2 1 0 1 1 1 1 3 8 4 4 3 4 3 1 3 5 4 3 2 1 1 2 4 4 6 8 3 4 3 1 6 6 3 3 5 2 3 2 6 7 5 5 6 5 5 5 4 4 7 7 5 8 6 5 3 4 5 4 5 6 7 8 8 8 8 8 9 10 9
7 5 4 3 2 1 1 0 1 2 4 8 10 5 4 4 3 3 0 1 1 1 1 1 3 4 7 5 1 1 2 3 3 5 5 4 5 5 3 3 3 5 6 7 8 5 6 6 4 5 6 3 4 4 2 2 5 7 6 6 6 6 5 5 5 5 6 7 3 5 7 7 6 3 1 4 4 4 5 7 8 8 9 9 9 9 10 10
6 6 6 5 4 2 2 2 2 4 6 8 8 4 4 3 3 1 2 2 2 2 1 2 5 7 7 3 0 3 1 2 2 4 4 3 4 4 5 5 2 4 6 4 4 4 6 8 7 6 7 8 8 6 4 5 7 7 7 7 7 6 5 6 6 6 7 5 4 6 6 6 7 7 4 4 6 7 7 6 6 7 8 8 8 9 9 8
8 8 9 7 6 5 4 4 4 6 5 7 6 4 4 4 1 2 2 1 0 3 2 4 6 7 6 3 1 4 1 1 1 2 2 2 4 4 5 5 4 5 4 2 2 3 4 5 9 8 6 10 11 7 5 6 7 9 8 8 7 7 7 8 7 6 7 3 5 6 5 5 7 8 8 9 8 9 8 7 7 7 8 8 8 8 7 8
11 11 11 10 9 8 6 5 4 5 5 6 5 3 4 3 1 1 1 1 3 2 3 5 7 6 3 1 3 4 1 2 3 1 3 3 4 4 4 5 6 6 5 5 5 5 6 3 8 8 4 9 13 11 9 6 6 10 10 8 8 7 7 8 6 8 8 2 6 6 4 5 4 2 4 7 7 8 9 8 8 7 9 9 8 8 8 8
13 13 14 13 11 11 8 5 4 4 6 5 4 3 4 1 1 1 0 2 2 3 5 5 6 5 3 4 4 4 3 2 2 2 3 3 2 2 1 1 3 5 5 5 2 3 7 5 5 5 2 6 11 11 10 8 6 8 8 8 10 9 8 7 3 3 5 2 4 5 4 6 4 1 3 6 6 9 10 9 10 10 10 9 8 9 9 9
11 13 13 12 12 12 9 6 6 6 6 5 4 3 1 2 2 1 2 2 2 5 8 5 3 4 2 3 4 3 2 2 2 2 2 2 1 0 2 4 2 2 4 4 2 2 6 3 5 4 3 6 8 7 6 8 6 3 6 9 8 7 9 8 3 1 1 7 7 6 6 7 6 6 9 11 10 11 12 12 12 11 10 9 8 9 10 11
5 8 9 13 14 11 9 8 8 7 5 4 3 2 1 2 2 2 2 3 2 4 7 4 1 2 3 2 2 2 3 3 1 2 2 2 1 2 4 4 3 1 1 3 3 1 4 6 3 6 7 5 4 5 7 9 7 4 6 7 4 4 7 8 7 4 5 10 9 8 10 9 8 7 9 14 15 13 14 14 13 12 11 9 9 10 12 12
2 3 6 14 17 10 8 10 8 5 5 3 0 1 0 1 2 2 3 3 3 3 5 4 1 2 3 3 3 2 5 4 1 2 3 3 2 2 3 3 3 3 3 2 3 0 2 7 6 5 5 1 3 5 8 8 9 9 7 4 4 7 8 7 7 8 10 10 9 10 12 11 10 8 7 13 15 14 15 15 14 13 12 11 10 11 13 12
2 3 3 15 17 8 8 9 5 4 4 3 1 2 1 2 3 2 3 3 3 3 4 3 1 1 2 4 5 4 4 4 3 3 3 2 1 3 1 0 2 3 3 3 4 1 2 7 5 2 2 1 2 6 8 6 8 9 7 6 8 8 8 9 8 8 10 11 10 12 12 10 10 11 11 13 13 13 14 14 14 14 13 12 11 11 12 12
2 2 2 15 16 6 7 6 3 3 2 1 2 1 1 2 3 2 2 3 3 3 3 3 2 3 4 5 6 5 4 4 5 5 2 1 1 4 4 4 2 2 2 3 4 3 3 6 7 5 4 5 6 6 9 8 6 6 7 8 9 7 8 9 9 9 10 11 11 11 12 10 8 9 12 14 12 12 14 14 13 13 13 13 12 12 11 11
3 2 3 15 14 5 5 4 1 2 1 0 1 1 1 1 1 1 2 2 3 2 3 5 5 5 5 6 5 4 4 5 5 5 3 3 4 2 4 5 4 5 4 6 5 3 4 5 7 9 8 9 11 10 10 9 7 7 7 8 10 9 9 10 11 11 11 12 11 11 13 12 7 6 10 12 11 11 13 14 13 13 13 14 13 13 13 12
3 1 4 16 15 5 5 2 2 2 1 0 1 1 1 2 3 2 1 2 4 2 3 5 6 6 6 6 5 4 5 6 6 5 4 4 3 0 4 4 5 5 5 8 5 2 3 5 8 10 11 13 15 15 14 13 13 12 10 10 11 11 10 10 11 10 10 11 12 12 14 12 8 6 9 10 10 10 12 13 13 12 12 13 13 14 14 13
3 3 4 15 14 5 5 1 2 1 0 2 1 1 1 2 3 3 2 3 3 2 3 3 3 4 4 3 4 6 5 4 6 6 5 5 0 5 6 6 6 5 4 6 4 2 2 5 7 9 11 13 15 15 15 17 16 13 12 12 11 11 10 10 10 9 9 10 11 11 12 11 8 7 8 10 10 11 12 13 14 12 10 12 14 14 14 14
3 2 2 14 14 4 4 2 0 1 2 1 2 2 1 2 3 4 3 2 2 2 4 3 2 3 3 3 4 7 5 3 4 3 3 5 1 7 6 7 6 5 4 3 3 2 2 4 6 8 9 10 10 10 10 11 9 7 9 9 9 11 12 11 11 10 10 13 16 14 12 10 7 5 8 11 12 12 13 14 15 13 10 12 13 13 13 13
1 0 1 10 14 6 1 3 3 1 0 1 3 3 3 2 0 1 3 3 2 3 4 3 3 3 4 4 5 7 6 5 4 2 2 5 3 3 4 7 7 6 3 2 2 3 5 6 6 8 10 10 9 7 6 5 5 6 9 10 12 13 12 10 8 8 9 14 17 15 12 12 12 9 9 11 13 14 14 15 14 13 12 12 12 13 12 11
1 2 2 4 7 6 3 3 3 2 1 2 3 3 4 4 2 2 2 3 1 2 4 3 3 4 4 5 6 7 7 7 6 5 5 7 6 2 4 7 8 6 2 1 2 4 5 7 8 10 12 12 13 13 12 10 10 11 13 14 15 14 13 9 7 8 10 11 13 14 13 15 17 15 13 12 13 14 14 15 15 14 13 13 12 12 10 8
1 2 4 3 2 2 2 3 3 2 1 2 3 1 2 5 2 1 2 2 0 2 4 3 3 4 4 4 5 6 7 8 8 8 8 7 7 5 5 7 8 5 1 3 4 4 6 9 11 13 15 16 18 20 18 16 15 15 16 17 17 16 16 13 11 12 12 11 12 14 13 13 16 18 18 17 14 13 13 14 15 14 14 14 12 11 10 9
2 1 2 2 2 2 2 3 4 3 1 2 2 1 3 5 4 2 2 1 1 3 3 3 4 3 2 3 4 5 6 7 7 7 8 7 6 7 6 7 8 5 5 6 5 3 6 10 11 13 16 19 20 20 20 17 16 16 17 19 18 19 18 17 17 18 15 12 13 15 15 13 15 20 22 21 19 17 16 14 14 14 14 14 14 13 12 11
3 1 2 1 2 2 2 3 4 4 3 2 2 3 4 5 4 2 2 2 4 3 2 4 5 3 2 3 4 6 6 6 7 6 6 7 7 7 7 7 6 4 5 7 5 3 5 8 9 11 14 18 20 20 19 18 17 17 19 20 20 20 20 19 20 20 19 17 16 18 19 16 16 21 24 21 19 18 17 16 14 13 14 15 15 14 13 13
2 1 1 1 2 1 1 2 3 4 2 2 3 2 3 5 5 2 2 4 5 3 2 5 6 5 5 5 5 8 8 8 9 8 7 8 7 6 6 5 4 4 5 6 6 5 6 7 8 9 10 15 19 18 18 18 17 18 20 21 21 21 20 19 18 17 18 18 17 18 18 16 17 21 22 20 19 18 19 19 14 14 17 17 15 14 13 13
3 1 2 3 1 1 1 2 2 4 3 2 2 1 1 4 3 3 5 6 7 7 5 5 6 6 7 8 9 10 9 8 10 11 10 10 10 8 6 5 5 6 7 7 7 7 7 8 9 9 10 13 15 15 16 16 15 17 20 21 21 19 16 16 15 14 14 15 15 16 15 14 16 18 18 19 20 21 22 20 17 18 20 18 15 14 13 12
3 1 1 3 1 1 1 1 2 3 2 1 1 2 2 3 1 3 5 3 4 6 5 4 6 6 7 10 10 8 5 6 10 11 10 11 12 11 10 11 12 11 10 9 8 7 8 8 8 9 9 12 14 14 12 11 11 14 15 15 16 16 16 16 15 15 16 14 13 13 13 14 17 16 16 18 19 21 21 19 18 18 17 14 14 14 13 11
Wind_Direction
331 326 327 322 319 322 317 317 316 313 310 309 307 301 294 288 283 280 281 281 289 300 306 324 332 334 330 322 317 314 317 303 253 238 243 288 61 193 178 144 151 152 152 175 193 190 178 186 183 185 194 183 205 181 170 198 193 204 219 222 226 217 201 166 182 188 108 133 139 153 173 169 150 145 142 155 138 129 145 136 129 124 83 79 102 122 126 131
323 320 324 321 320 322 318 318 315 313 312 310 308 303 297 287 280 280 286 289 293 300 309 326 330 330 324 316 312 306 309 281 246 216 114 96 103 107 106 120 145 159 175 202 197 190 183 181 177 184 194 183 182 170 172 178 198 218 223 222 228 201 112 58 116 79 71 146 140 147 173 174 150 144 164 183 149 151 164 142 156 150 122 115 129 138 135 140
325 324 325 324 325 325 321 318 312 313 313 309 305 300 295 288 284 285 290 289 292 302 311 324 328 324 318 313 301 296 297 255 209 134 115 118 106 86 84 90 348 171 192 220 201 196 194 176 177 189 196 192 180 182 187 174 195 218 227 230 210 132 100 77 93 88 69 141 145 145 155 154 133 140 181 197 161 177 194 152 167 170 148 140 141 147 145 150
332 330 328 325 327 325 320 314 310 314 311 308 300 294 289 286 288 290 292 290 294 304 310 322 326 319 319 310 287 283 276 237 162 112 137 169 170 344 321 317 298 263 219 211 190 195 208 177 183 200 203 193 176 190 191 174 193 196 216 260 99 139 148 116 110 105 96 139 152 145 152 153 129 154 190 192 183 199 206 155 151 168 151 147 146 153 154 157
337 333 326 322 322 320 318 317 314 307 306 306 300 293 284 288 296 295 294 292 298 299 305 323 324 324 321 296 263 253 262 231 131 122 163 184 237 317 317 298 274 241 208 200 177 180 196 190 189 199 209 189 169 191 187 169 204 203 207 335 54 175 156 114 108 96 97 128 151 152 162 147 135 177 196 211 223 220 103 121 120 133 146 151 153 156 160 163
336 329 322 322 322 322 322 320 314 304 302 303 297 294 288 293 295 291 294 289 287 289 304 326 329 332 320 265 241 245 254 220 115 154 174 194 284 357 336 305 232 194 193 192 181 188 191 190 191 194 205 190 179 191 172 160 218 234 197 145 72 301 97 115 114 86 86 169 161 151 136 138 167 182 187 233 256 41 51 78 127 131 137 147 152 158 165 168
330 328 328 328 323 321 319 314 314 307 303 297 285 281 280 279 275 276 285 276 276 291 302 323 334 338 322 229 221 237 233 98 118 169 173 193 13 20 25 74 123 162 183 193 191 195 188 192 196 194 198 187 185 183 159 166 214 249 194 153 146 71 107 111 111 104 74 153 128 119 145 176 198 174 173 224 210 82 73 108 139 132 134 144 154 164 171 171
334 334 332 326 320 318 315 314 313 305 300 292 273 267 272 264 260 262 263 263 273 290 303 322 336 344 340 247 232 218 145 96 119 172 180 185 44 38 54 82 108 154 192 211 204 202 195 199 194 195 200 177 182 172 162 180 202 238 204 143 148 113 118 109 115 124 101 110 111 175 184 180 196 38 206 200 144 115 119 150 155 144 144 153 163 170 173 170
338 333 327 323 322 318 314 314 309 302 298 292 279 271 271 261 256 251 246 257 276 294 311 314 330 339 335 273 251 208 105 95 127 154 163 158 88 55 56 94 135 182 209 204 221 223 213 206 184 203 221 150 175 167 176 201 198 208 175 141 149 134 127 130 134 124 114 126 168 209 189 152 130 270 222 174 134 133 154 168 162 157 161 164 168 174 176 169
337 332 326 325 323 317 313 309 305 304 301 293 281 269 264 255 247 241 242 255 274 294 298 303 333 333 296 258 254 197 101 124 145 136 144 152 154 111 74 111 182 235 222 142 212 242 251 220 167 212 241 148 172 163 182 217 171 144 153 138 138 135 137 155 144 133 150 127 227 228 190 153 148 228 214 138 134 165 169 173 167 169 172 171 172 174 178 173
338 334 329 326 324 322 320 318 316 312 311 304 292 273 256 250 242 232 232 244 267 281 291 309 332 334 288 264 265 108 117 144 152 141 149 160 180 185 116 42 264 268 223 143 88 28 352 66 154 209 212 156 163 149 149 200 100 146 156 145 137 148 151 174 171 158 189 148 182 243 199 176 185 224 191 106 132 179 176 175 173 180 176 175 176 174 179 177
342 338 332 333 335 335 338 344 339 326 320 312 306 291 257 248 245 232 228 214 217 263 292 315 330 344 286 263 352 89 132 154 167 167 169 177 185 185 137 32 312 333 343 97 84 35 2 99 197 224 136 162 163 146 129 110 154 153 174 177 157 177 180 182 182 168 216 164 123 240 221 206 205 205 135 104 139 172 181 179 175 185 179 177 179 180 186 181
345 341 342 348 352 357 357 352 341 334 325 311 302 283 247 232 239 231 213 193 184 253 293 317 334 331 273 258 73 109 154 160 181 173 176 181 175 165 128 49 113 56 355 13 56 24 350 270 249 249 117 197 152 118 127 127 165 159 187 218 173 202 199 175 181 193 210 146 121 229 237 206 192 181 135 125 161 166 181 180 177 184 182 186 187 192 194 185
346 348 358 3 4 7 2 353 347 340 324 309 297 275 243 228 229 221 211 195 194 239 283 318 346 294 264 82 91 160 181 206 200 176 176 179 178 168 133 98 120 110 3 18 34 14 350 230 234 163 104 309 111 138 152 140 182 171 179 228 211 226 176 139 162 201 196 143 158 225 251 209 171 166 146 152 186 181 182 176 182 185 186 198 194 204 204 192
352 360 8 12 12 9 6 359 350 339 328 316 296 268 241 229 217 207 203 187 217 256 297 315 345 282 247 113 103 158 116 192 186 167 181 183 190 175 148 147 136 117 73 60 60 68 107 183 207 162 112 72 146 172 176 159 190 182 193 214 211 233 152 123 138 203 206 155 175 216 250 216 163 158 144 166 194 194 193 180 184 191 194 207 204 210 213 201
2 8 13 19 16 12 10 358 350 346 340 331 308 265 229 213 196 193 191 187 226 207 302 276 283 278 266 101 108 131 109 143 142 158 181 184 201 170 148 163 147 139 142 110 107 119 136 160 195 134 131 164 185 197 189 184 194 191 224 228 195 221 197 133 132 180 212 168 186 217 254 251 161 156 137 158 189 194 203 192 189 200 205 215 218 217 218 210
10 12 20 25 22 17 9 1 2 4 2 17 35 75 183 187 179 179 183 185 175 151 238 281 282 276 268 107 135 137 84 70 110 138 164 169 187 157 168 178 157 145 140 140 157 159 159 155 151 181 189 196 208 217 209 212 205 187 218 238 205 229 233 169 134 147 192 210 206 216 239 261 169 160 152 162 185 194 207 208 202 212 218 224 232 228 224 218
14 16 24 26 25 19 12 12 18 23 38 81 85 86 113 142 151 150 153 147 143 170 217 249 258 259 160 138 144 95 56 32 131 142 153 157 155 154 174 167 152 160 153 152 168 184 183 184 202 197 182 194 206 218 227 239 234 199 207 225 212 217 235 234 135 127 186 218 220 215 225 241 207 175 173 169 181 200 214 226 226 229 233 236 242 241 236 228
14 19 26 27 27 22 22 25 29 36 62 107 98 92 110 123 132 151 177 180 186 229 192 158 244 286 102 119 102 67 45 123 153 163 157 152 155 156 152 150 171 182 186 173 160 181 202 189 206 214 192 189 198 227 257 329 334 223 209 246 240 219 230 222 106 99 202 224 223 222 225 235 224 197 190 181 185 215 230 238 241 240 246 248 248 247 243 236
13 19 27 32 32 26 33 40 42 45 61 108 119 131 130 117 164 164 192 207 259 345 337 358 286 285 94 110 103 47 122 159 172 170 159 159 175 175 170 184 193 195 216 194 137 145 260 218 206 221 190 156 139 73 356 45 84 182 214 244 244 247 249 187 124 118 184 246 230 227 235 240 237 221 207 194 193 223 238 240 238 237 246 250 252 252 244 238
11 15 25 35 35 31 47 59 56 57 60 66 68 228 46 3 340 20 343 223 100 3 313 321 297 276 302 21 326 339 249 178 167 156 158 169 195 198 177 187 208 197 174 90 100 124 244 235 194 90 64 96 117 118 124 136 160 203 232 241 233 240 245 132 132 141 157 250 232 217 239 245 242 240 229 211 206 224 236 237 238 243 249 254 255 254 248 241
8 11 18 23 30 35 60 77 71 69 64 56 44 52 56 19 340 321 309 262 107 32 310 281 265 266 264 256 263 277 258 200 157 153 160 180 205 212 169 192 224 186 129 153 177 178 218 224 116 98 95 105 121 147 163 168 183 217 236 248 244 228 201 138 160 177 181 245 237 210 241 251 244 243 238 229 226 232 237 239 245 251 252 252 252 250 248 240
6 6 5 4 19 29 62 92 84 74 63 51 43 49 52 0 307 227 245 274 99 77 10 14 257 246 188 213 191 215 237 238 167 152 158 191 204 223 207 205 216 167 156 196 213 220 219 146 99 122 150 146 148 166 179 183 201 228 248 252 245 151 235 220 160 174 196 246 274 271 266 263 251 246 241 237 240 239 234 233 240 246 248 249 252 253 248 238
4 356 353 357 355 4 34 94 95 73 63 53 52 52 16 346 295 205 228 275 96 81 53 40 18 35 37 36 176 218 233 349 214 136 156 201 188 186 228 215 195 182 183 199 228 244 183 78 101 151 172 178 176 176 192 214 220 217 234 260 268 169 244 288 118 159 204 217 257 275 270 256 236 238 235 224 229 232 222 222 227 231 235 242 249 251 247 239
358 346 338 339 335 350 351 122 108 37 245 106 58 35 351 349 258 198 244 253 120 98 134 131 97 54 31 11 178 242 250 134 37 97 159 213 197 168 187 191 219 203 175 175 227 242 109 80 141 166 182 199 193 195 208 229 250 219 208 238 259 217 218 225 158 196 231 205 193 258 275 234 175 208 214 185 197 210 207 215 225 226 225 227 234 240 238 230
354 345 329 317 329 338 319 165 90 339 243 116 36 355 345 341 206 186 252 232 109 67 139 154 202 62 33 222 151 256 244 152 72 84 171 213 239 234 199 172 221 213 158 175 236 255 110 124 176 177 196 204 210 229 211 214 259 253 167 191 218 222 211 203 206 223 260 237 150 220 280 273 192 213 201 187 198 199 198 211 223 224 218 220 227 230 226 213
351 345 323 308 315 319 320 62 36 302 250 67 9 342 343 327 183 175 251 207 102 26 355 64 37 42 21 1 219 255 240 107 118 138 172 206 179 232 233 188 193 155 147 197 239 187 127 147 176 196 208 209 223 235 188 196 251 270 107 158 193 205 211 209 226 236 284 330 192 208 249 275 267 228 173 187 207 205 204 211 215 214 210 214 220 217 210 199
348 343 321 305 305 313 331 2 314 328 40 25 344 341 345 230 175 199 260 173 78 348 349 52 56 19 345 323 235 256 358 94 173 128 134 203 197 222 232 218 219 149 154 222 242 143 148 175 184 193 209 220 232 238 158 194 239 78 101 158 187 203 222 219 239 247 270 304 254 197 199 255 259 174 153 187 210 216 211 207 207 204 202 206 208 209 204 193
348 345 329 312 312 312 286 259 313 1 34 336 333 345 351 176 184 241 258 78 64 308 90 58 128 267 321 296 206 228 260 241 291 93 142 187 211 250 253 233 237 158 168 232 259 140 149 189 195 204 225 234 224 56 136 206 230 107 126 156 167 194 222 220 244 261 237 262 269 202 182 248 272 182 173 188 212 229 219 205 203 199 200 206 207 209 207 198
356 4 10 353 10 357 274 230 300 304 293 315 334 345 210 188 225 246 234 99 59 74 81 334 333 315 325 319 173 177 222 220 83 134 165 169 191 212 18 35 239 221 197 226 252 241 140 113 215 225 242 261 97 77 79 216 154 132 158 186 187 196 211 224 242 260 253 252 256 196 184 239 273 221 188 188 212 238 220 199 192 195 204 211 212 213 214 209
18 39 53 35 53 94 270 141 94 290 298 318 329 319 219 217 256 258 72 96 284 20 137 329 355 336 339 350 110 118 203 191 154 189 192 171 184 189 187 194 213 230 230 224 231 221 176 182 203 206 217 209 142 132 126 154 163 172 199 212 213 211 209 227 224 217 247 250 216 163 182 222 246 246 147 161 188 224 218 201 194 206 219 219 217 220 221 217
50 65 68 60 74 82 317 322 311 287 299 316 314 275 236 241 240 264 77 167 243 17 61 356 353 346 343 331 3 20 307 167 159 215 230 211 202 197 205 218 226 232 239 224 198 206 215 215 202 186 193 200 201 192 164 167 191 208 222 218 228 233 223 238 230 215 239 236 137 150 181 213 242 259 257 202 198 211 214 217 223 233 242 237 225 224 225 220
76 78 73 68 70 53 345 298 279 284 306 311 289 252 258 266 239 59 61 179 3 28 11 331 330 328 316 265 6 16 297 113 77 229 242 249 235 219 212 232 266 265 264 286 285 262 245 199 182 185 190 200 213 218 193 189 197 207 216 216 229 244 248 248 238 235 244 213 125 149 179 227 251 252 240 222 213 213 213 223 239 249 254 254 241 231 228 223
84 79 69 57 50 31 353 313 291 291 302 293 265 242 262 270 64 57 307 46 33 356 321 329 317 305 288 184 42 19 270 100 57 267 220 216 231 230 217 208 225 252 266 269 277 268 267 238 183 185 165 180 203 227 241 241 212 211 223 231 235 250 260 259 257 260 260 185 132 152 179 223 229 183 194 205 209 215 217 222 233 244 250 254 251 238 231 225
82 72 61 47 30 18 9 357 339 313 299 285 258 254 270 280 87 152 287 22 13 325 317 314 295 272 206 142 90 38 15 59 52 310 236 225 251 259 265 203 205 240 255 251 254 244 263 267 166 158 118 172 207 232 244 257 246 219 225 236 238 246 258 264 283 300 303 303 177 178 209 232 225 148 171 186 197 209 216 219 225 239 244 243 243 233 225 222
79 66 56 38 21 17 26 29 4 334 305 283 263 264 297 31 22 46 35 349 334 340 321 294 262 265 238 169 154 113 41 342 319 297 226 211 304 317 55 39 34 241 246 259 275 247 259 259 128 151 213 209 233 255 234 241 258 215 216 238 243 251 261 263 256 110 304 276 247 209 223 238 243 246 218 208 211 210 209 212 219 234 240 235 233 226 219 217
78 68 60 30 12 10 22 17 353 323 293 282 290 314 75 70 11 21 34 338 316 341 317 298 42 313 283 248 201 127 15 323 255 266 248 202 212 120 113 84 52 347 314 286 279 278 278 276 241 246 250 213 227 271 245 238 252 244 234 247 251 249 257 259 258 247 235 254 252 217 216 227 241 248 215 206 213 212 209 212 217 225 228 227 225 219 215 214
139 109 75 23 2 352 1 359 340 306 287 283 283 86 155 134 69 37 25 344 300 306 305 293 349 317 282 282 284 335 335 310 246 287 275 237 188 130 140 116 70 41 35 303 266 122 303 282 269 259 268 183 157 240 247 227 226 248 272 281 254 251 251 238 243 255 251 255 258 230 222 228 238 240 210 204 211 212 211 210 212 213 214 219 218 214 214 212
208 196 90 10 353 344 358 352 322 289 289 280 178 125 145 129 108 62 7 339 291 295 304 291 282 280 269 291 301 313 314 302 309 306 268 239 170 132 134 40 80 64 31 317 288 340 299 279 275 206 189 270 215 232 251 234 212 230 258 259 249 257 265 257 248 253 256 259 261 251 243 241 239 236 232 226 220 215 209 202 204 208 206 210 211 211 212 211
295 208 75 2 351 352 356 337 279 288 303 314 347 111 140 134 127 90 18 344 305 289 303 299 279 270 274 291 293 291 293 289 291 284 264 270 200 122 68 18 353 10 350 276 268 288 273 266 271 251 222 252 257 243 260 267 246 232 237 243 246 247 257 265 260 253 256 261 262 263 259 253 249 242 240 241 235 224 212 198 200 206 204 206 208 210 212 212
296 200 50 0 354 352 328 303 250 333 306 141 12 136 109 18 253 147 86 354 309 278 295 295 280 279 287 290 283 280 288 282 275 270 261 246 227 171 55 17 335 339 317 268 265 300 289 269 275 272 259 259 266 267 273 281 284 274 263 260 259 255 255 261 258 250 252 257 259 265 265 263 265 250 236 240 240 230 215 204 203 205 205 207 208 210 213 214
295 127 30 358 358 343 298 285 108 340 273 75 28 118 23 335 289 299 7 313 295 260 262 278 279 282 279 280 290 293 289 280 274 272 260 246 245 24 53 22 331 327 311 284 284 7 326 279 275 274 270 269 273 275 275 274 276 276 270 266 267 265 261 260 262 264 264 264 265 266 266 267 269 246 228 234 239 233 224 214 209 210 210 210 209 209 213 216
8 67 24 357 358 322 282 292 136 240 102 60 352 205 344 290 273 295 305 306 305 281 273 274 279 286 277 285 295 288 290 287 273 267 259 257 145 78 60 20 337 307 300 291 290 27 343 274 272 278 276 277 275 270 261 256 259 262 257 257 264 270 272 270 273 282 280 272 269 265 263 267 270 244 231 240 240 229 224 219 218 219 216 213 212 210 213 216
31 64 31 5 4 325 268 321 299 250 95 97 246 211 194 262 293 300 294 311 330 306 291 281 279 287 286 295 285 280 293 291 263 261 272 276 105 92 56 17 353 312 317 335 325 351 315 274 280 286 285 284 277 264 249 240 243 265 274 273 272 280 290 292 283 279 271 264 263 262 261 268 271 241 233 240 228 214 212 216 221 224 216 212 212 212 214 214
355 88 68 18 19 26 28 10 348 308 89 267 268 260 244 227 100 344 304 303 305 300 294 285 292 292 283 281 271 269 271 262 260 266 270 273 249 116 33 10 352 322 342 22 324 301 284 274 275 276 276 280 279 278 282 278 276 290 296 291 281 283 291 294 287 279 274 272 268 264 266 274 275 262 247 238 221 212 211 209 212 218 215 212 212 211 211 210
327 7 8 22 31 47 76 45 356 314 320 301 277 267 258 238 157 104 285 271 256 283 281 277 284 275 266 271 269 265 261 252 256 261 266 274 268 278 356 342 323 319 29 95 286 282 271 264 259 259 264 272 278 284 294 297 287 283 287 285 280 280 280 275 267 265 270 276 273 270 280 289 286 278 265 249 230 220 216 209 208 213 213 211 210 208 205 204
350 19 3 348 9 49 84 71 15 347 353 311 293 292 255 255 241 140 215 238 299 288 267 260 265 260 254 266 270 271 267 260 257 261 272 279 276 286 310 302 293 293 247 232 256 265 266 262 259 260 262 266 272 279 285 285 279 278 281 280 278 276 273 264 254 255 262 269 269 269 274 282 288 286 277 271 263 248 233 219 212 213 213 212 211 205 201 204
31 71 35 343 313 354 28 23 6 349 309 277 290 290 260 259 260 243 221 234 263 261 254 231 221 233 255 266 272 273 268 266 264 264 272 279 281 288 291 280 271 261 252 250 241 249 271 267 264 266 267 267 270 275 279 279 277 275 274 274 273 271 267 261 257 256 257 258 262 267 265 262 272 275 270 271 272 268 259 246 232 229 225 218 215 211 210 214
53 85 99 320 297 359 7 340 329 308 281 272 268 253 260 263 255 258 282 275 258 245 251 253 240 239 265 257 263 267 265 274 275 272 282 290 289 290 289 281 266 241 249 258 246 249 271 270 273 275 272 271 271 273 275 275 273 272 270 269 268 266 262 260 259 258 257 257 259 260 260 258 257 260 263 264 265 267 268 264 255 245 235 225 219 217 218 222
39 15 35 264 247 94 350 292 293 284 261 230 243 236 255 265 265 277 276 261 263 248 232 257 267 281 282 269 258 263 269 280 280 278 285 285 283 288 286 277 261 251 268 276 270 265 265 273 281 279 273 272 270 269 270 270 271 272 271 269 266 265 264 261 259 257 257 259 255 251 256 262 258 257 261 263 259 257 257 257 258 252 240 231 224 220 220 223
36 20 333 289 259 110 257 254 272 284 266 207 239 261 251 258 271 307 288 261 259 267 267 273 285 287 278 268 263 269 279 284 277 276 279 276 275 282 279 269 275 282 280 276 274 267 263 271 276 271 268 269 267 266 268 272 277 273 267 264 262 260 260 258 256 254 252 254 255 252 254 259 258 259 262 259 251 247 246 245 248 246 238 228 221 219 218 215
25 164 270 286 273 136 249 265 242 265 290 49 297 286 273 273 286 304 294 265 241 263 269 276 287 289 278 271 275 292 318 299 281 281 280 274 270 269 267 264 266 270 270 268 270 262 257 264 270 267 267 269 270 272 277 284 280 266 259 257 254 252 253 254 256 256 251 249 253 257 258 259 261 265 268 259 246 241 240 237 236 236 231 224 220 218 211 199
Height
811 811 810 809 808 808 807 806 806 805 805 804 804 803 803 803 802 802 801 801 800 799 799 798 798 797 796 796 795 794 794 794 793 792 791 790 790 790 790 791 791 791 792 792 793 792 792 792 791 792 791 790 789 786 788 787 786 789 791 794 792 786 784 780 781 781 780 783 787 788 786 788 793 794 791 791 792 795 798 799 800 800 801 802 804 805 806 809
810 810 809 808 807 807 806 805 805 804 804 803 803 803 802 802 801 801 800 800 799 799 798 798 797 796 796 795 794 794 793 793 791 789 790 790 791 790 790 791 791 791 791 791 791 789 789 789 789 790 789 788 787 786 788 787 787 788 788 791 787 781 781 780 780 781 780 782 786 788 787 786 789 791 791 792 795 796 797 799 799 800 802 803 805 806 807 809
809 809 808 807 807 806 805 804 804 803 803 802 802 802 801 801 800 800 799 799 798 798 797 797 796 796 795 794 793 793 792 791 789 789 790 791 790 790 791 791 790 791 791 791 790 789 787 787 788 787 786 787 786 786 788 787 787 786 787 789 782 778 782 783 783 783 782 781 785 789 788 788 789 789 790 792 794 795 795 796 798 800 801 803 804 806 808 810
809 808 807 807 806 805 804 804 803 803 802 802 801 800 800 799 799 799 798 798 797 797 797 796 795 795 794 793 792 792 791 789 788 789 790 790 790 790 790 790 790 790 790 790 790 789 788 787 787 786 785 786 786 786 787 786 787 786 786 786 779 779 784 785 785 785 785 783 785 788 790 791 791 789 790 791 794 795 791 791 795 796 798 802 804 805 808 809
808 807 807 806 805 804 803 803 802 802 801 800 800 799 799 799 798 798 797 797 797 796 796 795 795 794 793 792 791 791 791 790 788 789 790 790 790 790 789 789 789 789 790 790 789 789 789 787 786 786 785 785 787 788 786 784 785 786 785 784 782 781 785 786 787 788 788 786 786 789 790 791 791 791 791 791 793 792 789 790 793 794 795 800 803 805 807 808
808 807 806 805 804 803 803 802 801 801 800 799 799 799 798 798 798 797 797 796 796 795 795 794 794 793 792 791 791 791 790 790 788 788 790 790 790 789 789 788 788 788 789 789 789 788 787 786 786 787 785 784 786 786 785 784 786 787 785 785 786 784 786 788 788 791 791 789 789 790 790 790 792 794 792 792 792 792 791 791 792 793 795 799 803 805 806 807
807 806 805 804 803 803 802 801 801 800 799 799 798 798 797 797 797 796 796 796 795 795 794 794 793 792 791 790 791 789 786 787 788 788 789 789 789 789 788 788 787 788 789 788 787 786 785 785 784 784 784 785 785 785 785 786 786 787 785 786 788 787 788 789 790 793 792 791 791 790 791 792 793 794 794 794 793 793 793 793 793 794 796 800 803 805 806 807
806 805 804 803 803 802 801 800 800 799 798 798 797 797 797 796 796 796 795 795 795 794 794 793 792 791 790 790 789 785 783 786 788 788 789 789 789 789 788 788 788 788 788 787 785 783 783 783 783 782 783 785 783 785 786 787 788 787 785 786 789 790 790 791 792 794 793 793 793 792 793 794 794 796 796 795 794 794 794 794 794 795 798 801 803 804 805 806
805 804 803 803 802 801 800 800 799 798 798 797 797 796 796 796 795 795 795 795 794 794 793 792 792 791 790 790 785 783 785 787 788 788 788 789 789 789 789 788 788 788 787 787 785 783 782 782 782 780 782 783 782 785 786 787 788 785 784 787 789 791 792 793 793 794 794 793 793 794 795 796 796 797 795 793 794 795 795 795 795 796 799 801 803 804 805 806
804 803 802 802 801 800 799 799 798 797 797 796 796 796 796 795 795 795 795 794 794 793 793 792 792 790 790 789 783 783 787 787 788 788 788 789 789 789 789 789 788 787 786 785 784 783 781 780 780 779 780 782 783 786 786 787 786 783 785 787 790 792 793 793 794 794 794 794 795 794 796 796 796 798 794 792 795 795 795 796 796 797 800 800 802 804 805 807
803 802 802 800 800 799 798 798 797 797 797 796 796 796 795 795 795 795 794 794 794 793 793 791 791 790 789 786 782 783 787 787 788 788 788 788 789 789 789 788 788 787 785 784 784 783 782 781 780 780 781 781 784 787 787 788 787 785 786 789 792 792 793 794 794 795 793 795 796 794 796 796 796 796 793 793 795 794 795 796 796 797 798 800 801 803 805 807
803 802 801 800 799 798 798 797 797 797 796 796 795 795 795 795 794 794 794 794 793 793 792 791 791 790 789 785 781 784 786 787 788 788 788 788 789 789 788 788 787 787 785 783 784 784 784 783 781 782 782 780 783 788 789 788 787 786 787 790 794 793 794 793 793 794 793 796 796 795 800 798 795 793 790 793 795 794 795 795 796 797 797 799 800 802 804 806
802 801 800 799 799 798 798 797 797 796 796 795 795 794 794 794 794 794 794 793 793 792 792 791 790 790 789 784 783 785 786 787 787 787 788 788 788 788 788 788 787 787 786 785 785 785 785 784 782 782 781 780 785 788 787 788 788 788 788 789 793 795 794 791 792 795 794 798 797 799 803 795 789 790 789 793 794 795 796 795 795 796 797 798 800 802 803 805
802 800 800 799 798 798 797 797 796 796 795 794 794 794 793 793 793 793 793 793 792 792 791 791 790 790 787 784 784 786 786 787 787 787 788 788 787 788 788 787 787 787 787 786 786 786 785 785 783 782 782 782 785 787 787 790 789 788 793 792 791 795 793 790 793 795 796 798 796 801 803 789 785 789 790 793 793 794 795 794 795 795 797 798 799 802 802 804
801 800 799 799 798 798 797 797 796 795 794 793 793 792 792 792 793 793 793 793 792 792 791 790 790 789 785 783 785 786 785 786 786 787 787 787 786 786 787 787 787 787 787 787 786 786 786 785 783 783 786 785 785 788 789 791 789 789 798 797 791 792 791 791 794 794 796 796 794 801 801 787 784 789 790 793 793 793 794 793 794 795 797 798 798 800 801 802
800 800 799 798 798 797 797 796 795 794 793 792 791 791 791 792 792 792 792 792 792 792 791 790 790 789 785 783 785 785 785 785 785 786 786 787 786 785 786 787 787 787 787 787 786 786 785 784 785 786 787 787 786 786 788 793 793 791 794 794 792 792 790 792 795 793 794 796 795 799 797 787 785 788 791 793 793 793 793 792 793 794 795 796 797 798 799 800
800 799 799 798 798 797 797 795 794 793 792 791 791 790 790 791 791 792 792 792 792 792 791 790 789 789 785 782 784 784 784 785 785 786 786 787 786 786 786 785 785 786 785 786 786 785 784 785 789 788 786 787 785 784 792 799 796 793 792 792 794 793 790 793 796 794 794 796 796 796 796 790 786 787 791 793 793 793 793 792 792 793 794 794 794 795 797 799
800 799 799 798 797 797 796 795 794 792 791 791 790 790 790 791 791 792 792 792 792 792 792 790 789 790 787 783 784 785 785 785 786 786 786 787 786 786 786 785 784 785 785 785 785 785 785 786 787 787 788 790 788 788 795 796 791 792 794 794 796 795 794 794 795 795 795 797 796 795 796 791 786 788 791 792 793 793 793 792 792 792 792 793 793 793 794 795
800 799 799 798 797 797 796 795 794 792 792 791 791 791 791 791 792 792 792 792 790 789 789 787 786 788 787 783 783 784 785 785 785 785 786 786 787 786 785 785 784 784 786 786 786 786 786 787 789 790 790 790 789 787 789 789 788 791 793 794 795 795 793 791 795 797 796 798 797 794 795 791 786 787 789 791 793 794 793 792 792 793 792 791 791 791 791 792
800 799 799 798 797 797 796 795 794 793 792 792 792 791 790 790 789 789 789 788 786 785 785 784 783 784 783 782 783 784 784 785 784 784 785 786 786 785 784 785 784 785 786 786 788 788 788 791 791 789 787 787 790 789 789 790 791 794 796 797 796 797 793 789 796 800 798 801 796 790 793 790 786 785 785 788 791 793 793 792 793 793 792 790 788 787 788 789
800 799 798 798 797 796 796 795 794 794 793 792 791 790 791 791 790 789 788 785 784 784 784 783 783 783 782 783 783 783 784 783 783 783 785 786 785 786 784 784 787 787 787 788 790 791 792 793 789 787 789 790 793 794 793 794 796 797 798 797 797 797 794 792 799 800 801 804 796 791 796 792 787 785 783 785 790 791 789 789 790 789 788 786 785 785 784 785
800 799 798 798 797 796 796 795 795 794 793 793 792 790 792 793 793 793 791 787 784 784 784 784 784 783 782 783 784 784 784 783 783 783 784 785 785 785 784 784 786 787 789 791 791 793 794 790 788 791 794 795 797 796 795 797 799 798 796 797 796 793 794 798 802 801 801 804 796 793 798 793 785 783 782 783 785 785 783 784 786 785 785 784 783 783 783 784
800 798 798 798 796 796 796 795 795 794 794 793 792 792 793 794 793 793 793 789 785 783 783 783 783 782 781 782 783 783 783 781 782 783 783 785 784 784 784 784 785 787 791 791 790 793 793 789 790 795 795 796 800 799 797 799 799 797 795 796 795 794 797 799 801 803 801 803 798 795 798 792 784 782 780 779 779 780 781 783 785 784 784 783 781 782 783 784
800 798 798 797 796 796 795 795 795 794 794 793 793 793 793 794 792 793 791 787 786 784 782 783 782 782 782 782 783 783 781 780 781 781 783 784 784 784 784 783 785 789 789 788 789 789 790 794 796 798 797 795 799 800 799 800 797 796 797 796 794 795 798 797 799 803 802 803 802 800 800 789 781 782 778 776 779 780 781 782 783 782 781 781 781 781 782 783
799 798 797 796 796 796 795 795 794 794 794 792 793 794 793 793 791 792 791 787 788 785 782 784 782 782 783 782 783 781 780 781 781 781 782 782 783 785 785 784 786 788 787 789 791 787 791 801 799 798 799 795 797 799 796 797 795 794 796 794 793 795 797 798 801 803 803 804 801 802 803 788 777 781 779 776 780 779 778 778 779 778 777 779 780 780 780 782
798 797 796 796 795 795 794 794 793 794 793 791 794 793 792 792 790 793 791 785 787 787 783 784 783 784 783 782 782 780 783 784 781 782 783 782 782 783 786 785 785 787 787 788 790 788 794 803 800 799 800 796 797 796 791 794 796 795 793 791 793 795 797 800 801 802 801 799 798 802 804 794 780 776 774 774 778 776 775 776 775 774 774 776 776 776 777 779
798 796 796 795 795 794 793 792 793 793 791 792 794 792 792 791 790 793 790 789 794 790 785 783 783 785 783 781 781 782 788 786 781 783 783 783 783 782 786 785 785 788 788 790 792 791 795 802 803 800 799 797 797 792 789 792 796 796 793 791 793 795 798 799 799 799 795 794 798 798 800 801 789 774 770 773 777 777 774 774 773 771 772 773 773 773 774 776
797 796 795 795 794 794 793 793 793 791 792 794 793 792 792 789 791 791 791 803 803 788 785 784 782 784 781 780 781 781 784 782 783 785 782 783 784 783 785 783 783 786 787 792 795 792 793 798 799 798 798 795 789 786 786 790 794 795 795 793 792 795 797 796 797 796 794 800 801 793 795 803 789 773 772 775 777 777 773 771 771 770 770 771 771 771 771 774
796 794 794 794 794 794 794 794 793 792 793 793 792 792 790 789 792 788 790 807 802 785 786 785 782 784 780 779 780 780 781 780 783 784 781 784 783 782 785 782 782 787 788 790 790 790 791 792 791 793 794 789 784 785 787 789 793 794 795 794 794 797 796 796 797 792 797 808 803 789 793 799 785 769 771 776 777 774 769 767 768 767 768 769 769 770 770 772
795 794 794 794 794 794 794 794 794 793 793 793 792 791 790 791 791 791 799 806 797 787 786 783 783 785 781 779 780 780 782 780 780 782 782 784 783 782 784 783 783 786 788 789 787 785 788 791 791 790 788 783 784 791 793 791 793 794 795 795 796 797 795 797 795 793 804 809 795 784 788 797 791 771 764 771 771 767 765 765 767 767 768 768 768 769 769 770
794 794 794 793 794 794 793 793 793 794 793 792 792 790 791 790 786 794 805 801 793 789 786 785 786 783 782 785 784 780 781 781 780 782 783 783 783 784 786 787 786 787 788 787 785 783 786 792 790 784 782 782 786 793 796 794 793 793 792 792 796 797 797 800 796 801 813 805 788 783 785 795 797 774 761 765 765 762 763 763 765 766 766 766 767 767 767 767
794 794 794 793 794 794 793 793 793 793 792 792 791 788 790 792 790 795 799 794 796 794 789 790 788 784 786 787 786 783 782 782 781 782 782 781 782 782 783 784 784 789 790 784 784 785 783 781 779 780 782 782 785 789 794 797 794 793 791 793 800 797 797 804 801 801 804 793 785 786 788 795 792 771 761 764 763 762 762 761 763 764 764 764 765 766 766 766
795 794 794 794 794 794 794 793 793 793 792 791 790 786 789 796 798 798 794 792 798 796 791 793 789 786 787 785 786 785 784 785 783 782 782 782 783 780 779 779 779 787 790 785 788 788 782 775 774 782 783 779 781 784 790 793 791 792 788 791 799 795 798 806 801 795 791 787 788 788 792 799 787 766 757 758 759 759 759 760 762 763 764 764 764 765 766 766
795 794 795 794 794 794 794 793 793 792 792 790 788 787 794 800 800 800 796 793 795 794 791 793 790 787 786 786 788 785 784 786 783 784 784 782 785 783 779 779 780 784 787 789 790 789 790 785 777 780 779 775 777 776 775 777 782 784 777 779 788 787 791 797 792 785 781 787 797 797 797 796 783 765 753 752 754 755 756 758 760 763 764 764 764 765 766 766
796 795 795 795 795 794 793 793 793 792 791 788 786 790 797 801 798 798 798 794 795 795 792 790 789 789 786 787 790 787 787 788 783 783 783 781 784 783 780 781 782 783 787 792 789 786 792 785 772 773 774 773 775 770 765 772 780 778 771 777 782 777 778 785 787 786 786 790 797 800 795 777 764 759 753 753 755 753 756 758 759 762 761 763 765 764 764 764
796 795 795 796 796 795 794 793 792 792 791 788 789 792 797 800 799 797 799 798 798 798 794 789 788 788 787 786 789 788 788 788 785 784 783 782 784 784 784 786 785 784 786 789 787 786 790 782 770 774 775 770 771 768 766 774 779 777 779 781 774 766 772 784 792 795 800 799 787 785 788 772 762 760 751 753 757 753 755 757 757 759 758 760 763 761 762 761
796 795 796 797 797 796 795 794 793 793 789 787 793 798 798 801 801 798 799 800 798 799 797 795 792 793 792 790 788 787 787 787 786 786 785 784 786 786 786 789 787 785 784 785 786 787 791 785 771 771 774 769 768 771 769 768 771 778 783 776 768 770 775 782 792 795 797 797 779 772 782 778 771 764 748 748 755 753 753 753 754 755 756 758 759 758 758 758
796 796 796 797 798 796 795 794 793 791 789 789 799 805 801 800 801 800 800 800 799 799 799 799 797 795 796 795 791 788 790 789 786 787 787 784 787 787 786 788 788 785 783 784 786 785 790 791 776 766 773 772 769 775 776 769 769 775 775 769 772 784 784 782 793 796 793 792 781 772 776 773 765 755 745 747 751 749 748 749 750 752 753 755 755 755 755 755
796 794 796 799 799 796 796 795 793 790 790 793 800 804 801 801 802 801 801 801 800 800 800 799 798 798 797 797 795 791 793 793 789 789 789 786 787 788 786 788 789 787 785 784 786 785 788 795 786 771 772 775 772 776 777 774 772 773 774 772 771 779 780 777 780 784 786 787 780 773 772 765 751 741 738 741 742 742 743 745 746 748 749 751 751 752 753 753
795 794 798 801 798 797 796 795 792 792 795 798 799 801 801 802 802 802 802 802 801 800 801 800 800 801 799 798 797 795 795 796 793 792 791 787 789 790 790 791 790 788 786 784 786 787 788 794 793 778 771 776 776 772 770 771 772 775 779 778 774 773 774 774 773 771 774 780 778 774 769 754 737 730 732 732 733 735 738 740 743 743 744 746 748 749 750 751
795 794 799 801 798 798 796 794 796 797 798 801 802 802 803 804 803 802 803 803 802 800 800 801 801 801 801 800 798 796 796 797 794 792 792 789 788 792 795 796 793 790 789 785 785 791 793 794 795 787 778 777 773 764 761 765 769 773 775 773 772 772 774 781 780 768 763 768 769 770 766 747 728 726 729 727 727 730 732 736 739 739 741 743 744 746 748 749
795 797 802 802 799 798 795 796 802 802 799 802 804 804 806 807 805 803 803 803 803 801 801 802 802 801 802 801 799 798 798 798 795 793 793 790 788 792 796 797 793 790 791 788 786 794 799 796 795 790 780 774 768 761 761 764 765 769 771 769 768 769 773 782 784 774 767 766 761 762 763 746 726 724 727 726 725 727 729 733 735 736 738 740 741 743 745 747
799 801 803 802 800 798 797 799 803 803 802 805 806 806 807 808 806 805 805 805 804 803 804 804 804 804 803 802 803 801 800 800 798 794 792 790 790 795 797 796 793 791 792 791 789 795 800 797 795 790 777 768 763 760 760 761 765 769 768 765 768 770 772 777 780 779 779 775 768 769 767 748 728 724 727 726 725 726 728 731 732 733 735 738 739 740 742 744
805 805 804 803 801 798 799 803 804 804 806 808 808 808 808 808 808 807 807 808 807 807 808 806 806 806 805 804 806 803 802 804 801 794 794 794 794 797 798 796 796 793 794 796 796 799 801 798 797 798 791 781 774 768 762 760 768 774 770 768 771 774 776 778 777 776 779 775 768 770 768 750 732 727 729 727 726 726 727 728 729 731 733 735 736 737 739 742
807 806 805 805 803 801 804 808 807 806 809 811 811 810 809 809 811 811 810 809 809 809 810 808 807 807 806 806 807 804 802 805 803 798 797 797 795 795 798 799 797 795 798 801 799 800 803 801 799 802 801 794 786 779 773 772 777 780 778 776 777 778 781 784 783 784 783 775 765 764 762 749 735 732 733 730 728 728 727 726 728 729 730 731 733 735 737 740
807 808 808 807 806 807 810 813 811 810 812 814 813 812 812 810 810 812 812 811 811 811 810 809 807 808 808 808 808 807 803 802 803 801 800 799 796 795 798 800 798 798 801 803 801 801 803 801 799 801 799 792 786 779 775 779 784 784 782 781 779 779 780 785 790 790 785 779 772 765 762 757 748 742 739 733 729 729 727 727 728 728 728 729 730 733 735 738
812 816 818 816 813 811 811 814 814 813 815 817 815 814 814 812 810 812 812 811 812 812 811 810 809 810 812 811 812 811 806 803 803 803 803 802 798 798 800 801 800 800 801 802 801 802 804 801 798 799 797 790 784 779 776 780 783 784 785 783 780 778 778 783 787 783 779 781 778 767 765 768 762 752 747 739 733 731 728 726 726 726 726 728 728 731 735 737
817 823 827 827 822 816 815 817 818 818 818 818 817 817 817 814 813 814 813 812 812 812 812 812 811 811 812 813 815 813 810 808 806 805 805 804 802 802 803 801 798 798 799 799 798 801 805 801 795 795 794 788 783 780 778 779 780 781 782 780 778 777 777 779 779 776 775 778 775 766 766 770 765 755 749 743 738 736 732 727 724 724 724 726 727 730 732 734
822 825 828 830 827 822 823 825 824 822 820 819 819 819 818 816 815 816 815 815 815 812 813 815 812 810 812 813 815 814 811 811 811 808 807 809 809 808 807 803 798 795 797 796 795 800 805 799 793 794 794 787 783 780 778 778 779 779 778 776 773 772 772 773 773 770 770 770 768 765 764 765 759 749 743 739 736 735 732 728 726 725 726 726 726 727 729 731
829 829 829 829 825 825 828 828 826 822 819 820 821 819 819 819 817 818 818 819 819 816 815 816 813 812 813 813 814 814 809 810 812 811 811 815 814 809 807 805 799 796 797 797 796 798 802 798 793 795 797 790 783 780 778 777 777 777 775 771 769 768 769 769 768 768 768 767 766 766 767 763 751 740 737 736 733 732 729 727 727 728 728 726 724 726 727 728
835 835 835 829 823 825 828 825 825 823 816 817 819 818 821 820 819 822 821 817 819 818 815 816 816 815 814 812 813 812 809 811 814 812 811 813 812 809 806 803 801 801 800 800 799 798 800 799 793 794 798 789 778 778 777 775 778 779 775 770 768 769 769 766 764 764 765 767 767 768 767 758 742 733 733 730 728 728 725 724 727 727 723 721 722 724 725 726
837 836 836 832 825 826 826 822 823 822 816 817 821 821 823 822 820 827 826 818 816 817 816 818 820 820 817 813 811 811 813 815 815 812 811 810 807 806 805 802 801 803 801 800 800 798 798 798 794 794 796 785 775 775 776 780 787 781 766 761 763 764 764 762 760 759 759 762 764 761 754 743 733 730 729 724 722 722 718 717 721 721 718 719 721 721 723 725